Wetbulb
61.52 58.66 57.89 56.32 45.75 42.78 40.06 44.62 49.27 48.66 49.32 54.54 58.38 57.09 57.78 60.53 59.17 54.18 65.90 70.85 70.31 71.01 73.33 75.23 75.84 75.84 75.68 75.59 76.48 76.63 76.72 76.75 76.66 76.72 76.44 76.32 76.22 75.43 74.68 74.01 72.73 71.64 70.68 69.61 68.68 67.93 67.29 67.42 67.63
60.03 59.68 54.98 51.52 41.85 37.36 41.28 48.96 47.92 50.68 52.34 55.38 57.98 57.81 58.84 59.38 63.58 63.11 67.76 70.34 70.09 71.31 72.74 73.56 75.66 75.61 75.54 75.19 75.56 76.33 76.44 76.67 76.78 76.65 76.46 76.31 76.09 75.30 74.39 73.27 72.10 71.20 70.39 69.39 68.21 67.67 67.78 67.65 67.25
62.69 61.43 49.05 45.44 41.93 40.86 41.83 48.63 49.89 52.86 55.16 57.03 57.42 60.06 60.26 61.56 64.13 63.59 70.18 70.10 69.70 70.59 71.39 73.41 75.56 75.36 75.56 75.21 75.03 75.39 76.08 76.47 76.80 76.53 76.41 76.03 75.81 75.04 74.33 73.22 72.31 70.77 70.09 68.91 68.22 68.16 68.09 67.52 67.20
59.96 56.67 53.68 42.95 41.55 45.96 47.85 50.36 52.15 52.49 53.60 59.20 59.09 57.77 61.44 66.29 64.81 67.49 72.79 70.75 69.11 69.45 71.19 75.13 75.43 75.33 75.41 75.21 74.66 74.73 75.44 75.98 76.28 76.32 75.91 75.46 75.00 74.77 73.85 73.02 72.27 71.25 69.88 69.21 69.03 68.90 68.55 68.18 68.12
58.08 51.40 42.43 41.03 43.64 48.30 51.31 52.72 52.59 51.30 51.84 56.58 58.34 57.10 59.89 65.69 66.91 72.08 72.18 71.99 69.26 67.99 70.94 74.05 75.37 75.33 75.31 75.21 74.81 74.28 74.53 74.94 75.48 75.76 75.52 75.17 74.86 74.27 73.55 72.67 71.49 70.89 71.11 70.55 69.87 70.25 70.44 70.36 70.22
53.41 50.76 40.18 39.56 44.26 48.62 50.70 52.03 51.55 50.76 51.45 55.07 56.07 57.77 59.08 65.66 65.76 68.14 71.23 70.51 70.56 68.55 71.68 72.57 75.17 75.10 74.93 75.03 74.53 73.98 73.81 73.83 74.42 74.86 74.83 74.76 74.41 73.84 73.26 72.55 71.80 71.58 71.80 71.91 71.42 71.30 70.90 70.82 70.92
52.68 47.11 42.72 43.63 44.67 47.30 50.23 51.47 49.80 50.23 50.51 52.10 55.62 55.40 61.25 63.60 65.64 66.75 68.88 69.46 70.14 71.28 71.39 71.12 72.71 74.12 75.03 74.72 74.32 73.87 73.64 73.47 73.33 73.55 73.77 73.62 73.67 73.38 72.86 72.25 71.95 71.92 71.92 71.75 71.56 71.32 71.31 71.41 71.16
54.30 50.61 45.74 47.36 45.99 46.66 52.59 52.69 51.56 50.76 51.73 55.75 56.81 53.85 57.95 62.94 65.70 66.06 65.92 66.24 70.04 71.62 71.25 70.88 70.48 72.16 72.42 72.73 74.41 73.96 73.73 73.41 73.15 73.30 73.32 72.95 72.93 72.83 72.59 71.38 71.51 71.85 72.03 72.05 71.83 71.68 71.83 71.55 71.49
53.59 45.69 44.43 47.00 48.33 49.67 52.97 51.00 54.46 54.78 53.03 54.21 55.41 59.53 64.86 66.31 64.86 63.10 63.86 65.16 69.87 71.86 71.03 70.82 70.24 70.16 70.40 70.84 72.58 73.66 73.41 73.33 73.17 72.93 73.05 71.81 69.26 69.30 69.81 70.85 70.57 71.90 72.13 72.23 71.98 71.95 71.72 71.95 72.07
49.11 44.36 47.39 52.55 53.21 51.96 53.59 53.90 54.07 52.48 52.20 52.99 53.91 62.03 64.36 65.55 64.46 63.25 62.30 62.88 67.03 70.61 71.41 71.27 70.50 69.51 68.47 70.14 69.69 70.66 70.75 70.65 70.80 70.40 69.69 69.57 67.35 66.25 69.04 69.73 71.43 71.61 72.10 72.17 72.12 71.94 72.16 71.84 68.89
49.04 45.28 50.01 52.52 54.37 55.11 54.16 54.19 56.01 53.34 49.85 52.26 52.16 55.45 61.68 63.20 63.97 63.64 62.56 62.50 64.60 70.35 72.13 71.78 70.75 69.27 67.80 68.15 68.45 70.00 69.73 69.68 69.94 69.03 68.24 68.63 67.74 66.46 67.38 65.75 67.98 67.10 70.57 68.27 70.05 69.95 69.72 68.83 68.27
42.65 47.64 51.11 52.50 54.62 54.65 53.47 55.39 54.58 54.89 53.88 56.68 56.99 56.94 57.82 60.93 60.23 63.18 63.12 62.47 62.82 66.95 69.19 71.43 70.47 68.60 67.65 68.06 68.90 69.13 68.40 68.40 68.42 68.82 67.65 67.98 67.05 64.41 63.61 64.55 64.65 65.28 67.40 66.87 65.56 67.71 67.79 67.32 67.42
44.44 45.81 47.65 49.43 50.65 52.30 54.51 53.71 54.29 54.82 57.86 59.06 58.47 58.22 56.72 57.94 60.57 61.88 62.60 63.92 64.04 65.29 68.38 69.88 70.73 69.70 69.19 68.06 69.47 69.44 68.94 68.46 68.04 67.91 67.81 67.35 67.01 65.03 64.20 63.50 64.12 64.89 65.94 66.45 65.47 65.50 66.28 66.84 66.85
43.87 44.76 45.94 47.66 47.53 48.70 48.16 50.28 53.36 55.13 58.25 58.44 58.34 56.95 57.57 57.48 60.73 61.33 61.62 61.96 62.51 65.02 65.06 67.84 66.70 70.74 70.98 70.76 69.58 69.72 69.88 69.78 69.07 68.64 68.30 67.72 67.31 66.45 65.11 64.23 64.49 64.71 65.02 66.17 66.16 64.85 65.39 65.68 66.32
44.91 40.89 43.46 45.19 46.81 46.53 48.87 46.59 47.74 53.73 56.40 56.69 57.60 58.11 58.15 57.41 59.38 60.43 61.39 62.99 63.31 63.53 66.00 64.88 66.02 71.52 71.88 70.57 70.12 71.10 71.26 70.89 69.94 69.78 69.53 68.72 67.55 67.20 66.34 66.01 64.86 64.73 65.86 65.26 66.50 65.46 64.51 64.95 66.13
40.24 39.27 35.00 41.84 46.15 47.38 45.92 40.97 48.17 51.46 53.85 54.52 56.21 57.70 58.48 58.21 57.88 59.59 62.10 63.07 64.19 64.00 65.00 69.33 73.42 72.60 71.67 70.89 71.17 70.56 70.95 69.82 69.44 69.40 70.58 69.96 68.91 67.79 67.67 66.44 65.45 65.31 65.72 66.04 65.91 65.51 64.79 64.57 65.66
36.26 32.75 35.42 39.33 44.29 44.43 43.87 42.74 47.73 50.28 51.19 52.52 53.71 55.96 57.62 58.01 57.95 58.04 60.57 61.90 64.19 63.66 64.03 67.56 72.93 72.47 72.27 72.15 71.66 71.71 71.47 70.79 70.40 69.25 69.11 71.31 70.16 68.86 68.17 68.13 67.22 65.33 65.98 65.96 64.79 64.22 64.46 63.89 63.75
32.55 33.83 37.17 37.60 40.75 41.17 39.57 40.91 44.84 48.44 49.59 50.19 52.13 53.42 56.05 57.33 57.39 58.82 60.31 60.68 63.90 64.26 64.58 65.50 66.45 72.27 72.57 70.80 69.95 68.62 68.47 68.14 68.09 69.11 69.66 71.50 71.31 70.62 68.77 68.60 67.78 68.38 65.66 65.29 65.11 63.91 63.41 63.12 62.82
40.17 38.48 37.36 40.46 43.68 41.27 40.16 40.84 43.09 45.52 45.89 47.33 50.51 52.37 53.93 55.15 57.77 58.77 59.35 61.20 61.21 65.08 64.68 64.62 65.71 67.46 65.99 66.80 66.46 65.91 65.47 64.90 67.31 68.47 69.90 69.30 71.83 71.61 70.53 69.08 68.53 67.96 67.21 65.84 65.58 64.82 63.36 62.76 62.78
39.95 37.63 37.05 40.61 43.18 41.37 40.09 39.80 42.82 44.35 44.79 45.99 46.75 50.05 53.27 54.95 55.96 57.69 58.54 59.35 61.27 64.63 64.52 63.92 64.29 65.34 65.58 66.86 66.11 65.12 64.50 65.24 66.01 67.98 68.57 69.96 70.85 71.15 70.17 68.63 68.33 68.21 67.27 66.40 66.18 65.38 62.88 62.22 63.27
38.67 37.10 37.54 37.49 41.01 41.77 39.88 37.69 40.14 43.63 44.94 46.13 47.43 48.39 51.86 55.02 55.52 57.02 58.14 58.81 60.61 64.67 64.83 65.25 65.42 65.93 64.68 66.56 67.05 66.11 66.44 67.55 68.04 67.28 67.83 70.25 70.86 70.91 70.74 69.50 68.38 68.29 68.47 66.63 66.05 65.21 62.59 60.84 62.89
35.23 41.86 41.13 39.65 36.27 30.73 38.46 29.08 36.91 40.73 41.91 44.28 46.23 47.07 48.87 52.15 56.17 56.22 56.87 57.77 62.64 64.30 65.00 65.23 65.72 65.43 66.15 66.39 66.26 65.64 65.83 64.36 65.24 67.56 68.95 69.97 70.75 70.41 70.28 69.89 69.12 68.75 67.93 66.81 66.32 65.74 63.63 63.43 61.83
37.65 42.23 40.39 39.37 35.15 31.99 33.79 29.83 34.53 39.46 39.18 41.48 44.02 46.78 48.99 51.47 55.10 55.98 56.65 57.15 62.86 63.59 63.86 64.49 65.63 65.70 66.39 67.92 67.51 66.02 64.96 65.81 65.46 68.18 68.61 68.79 69.42 70.12 70.49 69.36 68.79 68.96 67.59 67.33 66.48 65.67 65.02 64.14 62.33
43.42 39.60 38.82 37.43 31.60 26.05 32.02 30.93 31.54 35.21 38.45 41.66 44.21 46.16 48.90 51.37 53.91 56.17 56.50 56.59 59.75 62.05 63.23 63.13 63.13 63.85 64.71 65.55 67.23 65.21 64.30 65.70 66.82 67.27 68.75 68.90 68.63 68.85 69.53 70.00 68.78 70.04 68.80 67.44 66.92 66.38 64.80 64.01 63.31
39.03 35.15 26.14 22.33 21.93 23.65 34.44 32.10 32.54 39.16 42.43 42.65 43.65 45.46 46.82 48.33 51.20 55.15 54.04 54.80 56.72 57.83 58.93 61.37 61.86 62.85 65.35 65.55 66.96 66.91 64.74 65.50 66.43 67.83 68.99 68.62 67.44 66.85 67.93 69.02 69.00 69.58 67.98 67.71 67.90 65.69 64.73 64.06 62.71
35.25 33.21 26.38 21.38 21.12 24.78 34.27 28.00 32.94 41.90 44.89 45.93 45.73 46.68 46.62 47.85 51.27 54.37 55.17 54.59 54.75 57.16 57.52 59.31 60.13 59.44 64.00 65.20 66.95 67.16 66.33 68.43 67.90 69.37 69.41 68.90 68.15 67.68 68.53 69.20 69.02 68.88 69.04 66.94 66.12 65.03 64.33 63.98 63.26
34.65 30.52 34.61 28.39 29.77 26.47 28.41 33.72 39.39 42.49 43.24 45.47 46.51 47.62 47.03 48.70 52.46 53.35 53.38 53.73 54.08 54.96 56.19 56.64 56.51 61.91 64.00 66.10 66.00 68.42 67.81 69.24 69.58 69.16 69.62 68.61 67.95 68.40 68.87 68.84 68.92 68.55 66.94 66.30 64.91 64.04 63.71 63.63 62.29
38.27 38.92 28.73 30.68 20.10 21.35 27.16 29.58 31.07 38.46 40.24 41.70 42.57 44.84 48.50 49.82 53.46 52.80 54.81 56.74 59.51 60.87 61.68 62.02 59.32 63.11 64.33 65.63 67.90 68.68 69.00 69.99 70.96 70.81 69.13 68.55 68.49 68.90 68.94 68.69 67.55 66.11 66.00 65.27 64.03 63.26 63.58 62.93 62.31
34.48 32.16 34.81 33.54 30.86 24.05 21.53 26.67 40.47 39.04 40.95 40.34 41.87 44.22 46.64 49.75 52.56 51.56 54.25 59.91 61.04 61.77 61.62 61.85 60.55 62.55 66.54 68.52 68.51 68.61 69.46 70.45 70.57 69.82 69.28 69.25 69.44 69.21 68.53 67.42 65.64 65.25 65.26 64.24 62.94 62.23 62.84 62.25 61.65
38.06 34.30 35.10 29.34 26.79 28.74 28.99 28.34 41.50 40.92 41.65 42.64 42.18 45.50 48.41 51.82 50.01 54.86 60.19 61.08 61.30 61.12 61.35 61.61 60.58 67.43 68.79 69.26 69.43 69.66 69.25 69.38 68.30 67.41 66.97 67.83 67.67 67.65 66.62 65.90 64.37 65.50 65.46 64.86 62.57 62.48 62.46 62.00 61.10
MSLP
1009.05 1008.75 1009.14 1009.19 1009.65 1008.92 1007.96 1005.77 1003.52 1001.74 1000.41 999.00 997.54 997.85 999.14 999.67 1000.63 1002.10 1000.65 1001.87 1004.11 1005.20 1005.37 1005.78 1006.03 1006.72 1007.52 1008.09 1008.65 1009.11 1009.76 1010.13 1010.47 1010.87 1011.29 1011.52 1011.82 1012.09 1012.38 1012.47 1012.71 1012.93 1013.14 1013.39 1013.60 1013.85 1014.01 1014.07 1014.03
1009.07 1008.70 1009.05 1008.92 1009.22 1008.77 1006.83 1004.21 1002.38 1000.31 998.98 997.99 997.17 997.43 998.21 999.70 999.48 1001.20 1002.10 1002.34 1003.93 1004.84 1005.16 1005.65 1005.96 1006.49 1007.34 1008.13 1008.51 1009.13 1009.71 1010.07 1010.45 1010.80 1011.16 1011.47 1011.70 1012.07 1012.28 1012.50 1012.77 1012.94 1013.21 1013.37 1013.64 1013.77 1013.92 1013.88 1013.93
1009.23 1008.98 1009.53 1009.00 1008.52 1007.49 1005.94 1003.36 1001.94 1000.11 998.38 997.30 997.41 997.37 997.81 999.11 999.66 1000.84 1001.86 1002.52 1004.03 1004.95 1005.13 1005.43 1005.76 1006.46 1006.96 1007.87 1008.37 1008.99 1009.54 1009.86 1010.27 1010.67 1011.02 1011.31 1011.74 1012.03 1012.28 1012.59 1012.88 1013.06 1013.19 1013.40 1013.47 1013.60 1013.71 1013.74 1013.83
1009.08 1008.89 1009.31 1008.51 1007.73 1006.16 1004.74 1003.08 1001.96 1000.74 999.16 996.72 996.85 997.45 997.60 998.11 999.26 1000.38 1001.82 1002.70 1003.52 1004.68 1005.11 1005.31 1005.66 1006.26 1006.94 1007.45 1008.32 1008.89 1009.36 1009.65 1010.11 1010.51 1010.94 1011.34 1011.66 1011.96 1012.20 1012.52 1012.87 1013.15 1013.24 1013.40 1013.45 1013.47 1013.65 1013.67 1013.79
1009.05 1008.99 1009.31 1008.46 1007.07 1005.42 1003.88 1002.75 1001.55 1000.44 999.47 997.56 997.07 997.50 998.23 998.39 998.75 1000.34 1001.53 1002.17 1003.05 1004.31 1004.94 1005.27 1005.70 1006.05 1006.63 1007.13 1008.02 1008.64 1009.28 1009.64 1009.98 1010.39 1010.87 1011.16 1011.49 1011.78 1012.01 1012.36 1012.75 1013.06 1013.16 1013.34 1013.37 1013.41 1013.63 1013.70 1013.79
1009.09 1008.61 1009.20 1008.47 1006.68 1004.90 1003.27 1002.02 1001.57 1000.80 999.85 998.11 997.77 997.75 998.21 998.22 998.60 999.87 1000.63 1001.41 1002.55 1003.52 1004.72 1005.15 1005.78 1006.04 1006.51 1006.94 1007.64 1008.30 1009.00 1009.58 1009.89 1010.22 1010.64 1010.98 1011.34 1011.64 1011.84 1012.03 1012.34 1012.89 1012.88 1013.13 1013.27 1013.46 1013.65 1013.69 1013.75
1009.14 1008.85 1008.64 1008.02 1006.71 1004.84 1002.94 1001.96 1001.59 1001.07 1000.30 998.92 997.89 998.24 998.78 998.88 998.98 999.59 1000.38 1001.39 1002.50 1003.42 1004.26 1005.11 1005.54 1005.94 1006.41 1006.99 1007.50 1008.10 1008.70 1009.19 1009.65 1010.08 1010.47 1010.73 1011.11 1011.43 1011.63 1011.84 1012.20 1012.43 1012.67 1012.82 1013.08 1013.32 1013.49 1013.60 1013.68
1008.28 1008.85 1008.30 1007.71 1006.56 1004.45 1002.77 1002.12 1001.21 1001.08 1000.06 999.32 998.32 998.17 998.90 998.90 998.84 999.62 1000.47 1001.74 1002.84 1003.72 1004.02 1004.80 1005.55 1005.93 1006.46 1007.00 1007.33 1007.71 1008.19 1008.73 1009.33 1009.87 1010.30 1010.64 1010.90 1011.18 1011.31 1011.68 1012.11 1012.20 1012.42 1012.46 1012.77 1013.06 1013.27 1013.47 1013.55
1008.24 1008.18 1007.47 1006.96 1006.08 1004.41 1002.91 1002.37 1001.15 1000.55 1000.22 999.75 998.97 998.62 998.53 998.20 999.36 1000.02 1000.89 1001.95 1002.90 1003.84 1004.33 1004.60 1005.34 1005.88 1006.19 1007.00 1007.35 1007.72 1008.21 1008.66 1009.09 1009.59 1010.00 1010.41 1010.78 1010.97 1011.10 1011.41 1011.80 1011.98 1012.29 1012.26 1012.54 1012.80 1012.95 1013.23 1013.36
1007.76 1007.02 1006.31 1005.89 1005.24 1004.39 1003.30 1002.58 1001.64 1001.18 1000.71 999.82 999.54 999.32 998.50 999.82 999.64 1000.15 1000.62 1001.24 1002.43 1003.36 1004.01 1004.20 1005.19 1005.83 1006.19 1006.48 1007.08 1007.71 1008.29 1008.61 1009.06 1009.36 1009.53 1010.04 1010.54 1010.75 1010.92 1011.08 1011.43 1011.65 1012.01 1012.06 1012.34 1012.62 1012.68 1012.95 1013.23
1007.21 1006.33 1006.35 1005.58 1004.95 1004.21 1003.45 1002.48 1001.53 1001.44 1000.82 1000.28 1000.02 1000.14 999.89 999.49 1000.29 1000.21 1000.31 1000.52 1001.12 1001.99 1002.97 1003.55 1004.20 1005.17 1005.67 1006.00 1006.63 1007.31 1007.87 1008.19 1008.63 1009.16 1009.23 1009.50 1010.02 1010.33 1010.65 1010.84 1011.04 1011.33 1011.66 1011.89 1012.06 1012.44 1012.49 1012.59 1012.87
1006.90 1006.13 1005.73 1005.22 1004.58 1004.09 1003.28 1002.55 1001.86 1001.34 1001.02 1000.10 1000.01 1000.03 1000.49 999.83 999.58 1000.16 1000.35 1000.49 1000.86 1001.31 1001.67 1002.87 1003.66 1004.30 1004.85 1005.33 1005.98 1006.53 1007.50 1007.74 1007.98 1008.19 1008.60 1009.04 1009.43 1009.86 1010.19 1010.32 1010.48 1010.78 1011.15 1011.50 1011.76 1012.05 1012.11 1012.25 1012.44
1006.73 1006.19 1005.57 1004.73 1004.18 1003.40 1003.08 1002.45 1001.98 1001.16 1000.71 1000.16 999.99 999.95 1000.19 1000.65 999.38 999.09 999.84 1000.58 1000.69 1001.19 1001.74 1002.15 1002.78 1003.49 1004.08 1005.18 1005.66 1005.91 1006.56 1006.97 1006.92 1007.48 1007.83 1008.09 1008.52 1009.05 1009.50 1009.62 1009.78 1010.06 1010.46 1010.81 1011.33 1011.49 1011.77 1011.85 1011.90
1006.88 1006.26 1005.46 1004.63 1003.87 1003.37 1003.16 1002.59 1002.02 1000.69 1000.63 1000.49 1000.04 1000.09 1000.08 1000.20 999.94 999.12 999.53 1000.02 1000.47 1000.72 1001.31 1001.50 1001.99 1002.64 1002.80 1004.22 1004.91 1005.09 1005.78 1005.85 1006.14 1006.69 1006.91 1007.16 1007.46 1008.11 1008.60 1008.89 1009.21 1009.39 1009.65 1009.91 1010.35 1010.79 1011.03 1011.16 1011.44
1007.27 1006.61 1005.46 1004.43 1004.00 1003.33 1003.18 1002.14 1001.06 1000.93 1000.71 1000.39 1000.04 1000.01 1000.02 1000.36 999.95 999.15 999.37 999.74 1000.14 1000.19 1000.20 1001.52 1001.64 1002.20 1002.86 1003.73 1004.23 1004.70 1004.65 1005.21 1005.47 1005.87 1006.08 1006.12 1006.72 1007.24 1007.80 1008.24 1008.49 1008.68 1008.91 1009.23 1009.75 1010.22 1010.45 1010.73 1010.98
1008.06 1007.03 1006.13 1004.49 1004.17 1003.42 1003.81 1001.61 1000.71 1001.05 1000.54 1000.00 999.91 999.72 999.52 999.99 1000.20 999.53 999.20 999.33 999.45 1000.08 1000.33 1000.64 1001.28 1002.33 1002.96 1003.49 1003.90 1003.78 1004.15 1004.32 1004.64 1005.21 1005.13 1005.34 1005.85 1006.44 1007.32 1007.71 1007.90 1007.89 1008.39 1008.85 1009.41 1009.75 1010.06 1010.23 1010.44
1008.14 1007.09 1006.16 1004.84 1004.75 1004.07 1003.60 1001.66 1000.76 1001.12 1000.58 999.76 999.63 999.61 999.44 998.97 999.44 999.48 999.36 999.22 998.78 999.39 999.87 1000.60 1001.01 1001.84 1002.57 1003.59 1003.54 1003.46 1003.57 1003.83 1003.84 1004.31 1004.68 1004.86 1005.25 1005.83 1006.47 1006.96 1007.26 1007.40 1007.92 1008.32 1008.76 1009.10 1009.45 1009.85 1010.04
1008.21 1007.16 1005.98 1004.25 1004.68 1003.91 1003.55 1002.06 1001.13 1000.76 1000.19 999.56 999.34 999.09 999.07 998.73 998.40 998.61 998.74 998.71 998.49 998.88 999.20 999.71 1000.81 1001.33 1002.08 1002.70 1002.97 1003.37 1003.54 1003.67 1003.61 1003.87 1003.97 1004.32 1004.65 1005.12 1005.73 1006.25 1006.65 1007.11 1007.44 1007.86 1008.30 1008.61 1008.76 1009.09 1009.56
1007.51 1006.87 1005.89 1004.31 1004.73 1004.42 1004.02 1002.83 1001.36 1001.57 1000.66 999.93 998.81 998.62 998.50 998.25 998.00 997.86 998.16 998.13 998.13 998.37 998.90 999.34 999.99 1000.61 1001.12 1002.15 1002.82 1003.39 1003.39 1003.44 1003.24 1003.28 1003.49 1003.47 1003.95 1004.53 1005.09 1005.66 1006.18 1006.70 1007.18 1007.61 1007.94 1008.28 1008.65 1009.05 1009.22
1007.09 1006.60 1005.51 1004.82 1004.87 1004.70 1003.95 1002.78 1001.30 1001.28 1000.74 1000.16 999.55 998.56 997.70 997.83 997.73 997.50 997.32 997.72 997.89 998.07 998.30 998.63 999.12 999.73 1000.38 1001.12 1001.71 1002.20 1002.67 1002.68 1002.53 1002.53 1002.70 1002.89 1003.42 1003.97 1004.69 1005.18 1005.72 1006.27 1006.94 1007.34 1007.67 1008.03 1008.56 1008.94 1009.18
1006.93 1006.53 1005.76 1005.42 1005.19 1004.88 1004.22 1003.38 1001.97 1000.08 1000.45 999.92 998.97 998.40 997.60 996.82 996.85 996.89 996.93 997.31 997.40 997.59 998.05 998.20 998.56 999.23 999.82 1000.23 1001.22 1001.84 1002.16 1002.39 1002.40 1002.49 1002.45 1002.66 1002.98 1003.47 1004.20 1004.81 1005.36 1005.78 1006.47 1007.15 1007.46 1007.79 1008.26 1009.01 1009.26
1006.73 1006.72 1006.10 1005.79 1005.58 1005.37 1005.07 1003.20 1002.90 1001.35 1000.19 999.90 998.82 998.05 997.23 996.70 995.95 995.88 996.22 996.84 997.08 996.40 996.77 997.45 998.25 998.73 999.31 999.84 1000.85 1001.27 1001.56 1002.05 1002.00 1001.97 1002.03 1002.47 1002.77 1003.28 1003.91 1004.56 1005.03 1005.44 1006.14 1006.77 1007.12 1007.45 1007.96 1008.62 1009.27
1007.31 1007.38 1006.78 1006.56 1006.13 1005.80 1005.61 1004.90 1002.66 1002.05 1000.67 999.60 998.94 998.12 996.79 995.96 995.37 994.89 995.30 995.51 996.10 996.07 996.34 996.90 997.52 998.12 998.59 999.20 999.93 1000.34 1001.09 1001.28 1001.52 1001.83 1001.89 1002.34 1002.72 1003.02 1003.70 1004.28 1004.70 1005.25 1006.00 1006.41 1006.93 1007.40 1007.82 1008.29 1008.87
1007.07 1007.33 1007.41 1006.87 1006.86 1006.50 1005.83 1005.53 1003.45 1002.72 1001.35 999.54 998.58 997.66 996.56 995.45 994.65 994.18 993.83 994.27 995.01 995.83 995.57 996.21 996.97 997.64 997.99 998.50 999.07 999.56 1000.17 1000.72 1001.40 1001.84 1001.89 1002.25 1002.68 1002.94 1003.33 1004.04 1004.40 1005.08 1005.67 1006.19 1006.69 1007.08 1007.62 1008.09 1008.46
1007.18 1007.72 1008.89 1008.81 1008.12 1007.19 1005.98 1005.53 1003.78 1002.48 1001.30 999.70 998.26 997.33 996.16 995.16 994.50 993.50 993.50 993.74 994.31 995.01 995.44 995.70 996.20 996.85 997.14 997.51 998.09 998.76 999.46 1000.18 1000.73 1001.28 1001.62 1002.12 1002.62 1002.91 1003.37 1003.58 1004.30 1004.95 1005.52 1005.93 1006.49 1007.05 1007.53 1007.90 1008.31
1007.47 1008.01 1009.02 1009.40 1008.90 1007.89 1006.71 1005.19 1002.73 1001.57 1000.81 999.79 998.86 997.42 996.25 995.09 993.60 992.14 992.19 992.74 993.43 993.68 994.26 994.82 995.32 995.90 996.42 996.91 997.37 997.89 998.80 999.53 1000.20 1000.64 1001.10 1001.61 1002.22 1002.53 1002.92 1003.21 1004.19 1004.83 1005.40 1006.02 1006.59 1007.08 1007.47 1007.72 1008.04
1007.16 1007.65 1008.05 1009.12 1008.88 1008.90 1007.09 1004.75 1003.23 1001.65 1000.88 1001.45 999.92 997.49 995.99 994.94 993.21 990.85 991.29 991.89 992.48 992.88 993.30 993.86 994.49 995.10 995.62 996.20 996.96 997.48 998.33 998.96 999.51 1000.01 1000.50 1001.13 1001.67 1002.33 1002.54 1003.30 1004.15 1004.74 1005.38 1006.00 1006.51 1007.02 1007.39 1007.55 1007.88
1007.69 1007.73 1008.35 1010.07 1010.23 1009.05 1006.28 1005.30 1004.21 1003.73 1003.49 1002.66 1000.92 999.68 996.78 994.24 993.16 991.18 990.84 991.58 992.01 992.37 992.89 993.15 993.74 994.44 995.06 995.67 996.39 997.20 997.92 998.53 998.92 999.39 1000.19 1000.85 1001.56 1001.91 1002.65 1003.41 1004.10 1004.71 1005.32 1005.88 1006.35 1006.83 1007.04 1007.43 1007.77
1008.01 1008.37 1009.39 1010.64 1010.35 1009.14 1007.24 1005.64 1005.01 1005.08 1004.58 1003.99 1002.92 1000.59 998.38 995.95 992.56 991.69 990.96 991.45 991.70 992.02 992.42 993.12 993.72 994.35 995.05 995.59 996.29 997.04 997.75 998.21 998.61 999.07 999.75 1000.63 1001.30 1001.85 1002.66 1003.34 1004.00 1004.68 1005.16 1005.66 1006.29 1006.70 1006.93 1007.39 1007.65
1008.17 1008.31 1008.88 1009.87 1009.56 1009.13 1008.14 1005.95 1005.27 1005.64 1004.30 1005.08 1003.68 1001.93 999.10 995.85 993.25 992.35 991.48 991.73 991.94 992.06 992.35 992.87 993.53 994.02 994.66 995.37 996.13 996.90 997.53 997.94 998.45 999.18 999.97 1000.49 1001.02 1001.79 1002.60 1003.19 1003.90 1004.27 1004.98 1005.56 1006.16 1006.50 1006.75 1007.14 1007.40
Wind_Speed
5 5 4 2 3 2 6 10 15 17 12 6 7 8 9 6 10 7 9 18 20 17 16 18 23 22 20 18 17 16 14 14 14 13 12 12 12 12 11 11 10 9 8 7 7 6 5 5 6
4 4 2 3 3 3 8 19 21 20 17 4 8 7 8 5 8 12 9 17 21 17 15 16 22 22 20 18 17 16 15 14 14 14 13 12 12 12 11 10 9 9 8 7 7 6 5 5 4
4 3 2 4 4 10 8 8 11 18 33 4 6 5 4 8 11 15 14 20 19 14 13 16 23 21 21 19 17 17 16 15 15 14 13 13 12 11 10 9 9 9 9 8 8 7 6 5 4
3 2 4 1 11 12 23 19 20 20 17 7 7 3 3 14 20 12 20 20 18 14 12 20 23 21 21 20 18 17 16 16 16 15 14 13 13 12 11 10 10 9 9 9 9 8 8 6 5
3 0 3 4 12 15 17 17 16 18 13 2 6 4 8 11 19 25 21 19 19 15 11 16 21 21 21 21 20 18 16 15 15 15 15 14 13 13 12 12 11 11 10 10 10 9 8 6 6
3 2 1 7 15 18 19 17 8 9 16 9 2 5 5 12 24 21 19 19 18 18 14 14 18 20 20 20 20 18 16 15 14 15 15 15 14 14 13 13 13 12 12 11 11 9 8 7 6
4 1 6 9 15 19 20 7 6 9 12 12 7 4 4 13 17 18 17 16 16 15 15 13 13 16 18 17 18 17 16 16 16 15 15 15 14 14 14 14 14 14 13 12 12 10 9 8 7
4 4 9 12 15 21 16 14 7 7 16 13 8 3 1 8 17 16 13 11 14 12 13 13 11 11 10 11 17 17 17 16 16 15 15 14 15 15 15 14 14 14 14 13 12 11 10 9 8
3 5 9 16 18 18 15 8 10 5 8 8 6 8 3 12 13 10 10 11 13 11 11 12 12 10 10 8 10 13 16 15 15 15 15 12 6 8 11 12 15 15 15 14 13 12 11 10 10
6 7 16 11 15 15 16 17 13 8 8 10 12 4 13 14 12 13 11 14 16 14 14 14 12 10 9 9 8 7 7 6 7 8 8 6 6 6 9 12 16 16 16 14 13 13 11 10 4
10 18 12 16 19 20 19 17 14 9 9 9 10 6 7 8 15 13 11 16 18 19 14 16 17 15 14 10 7 5 5 6 6 9 8 8 7 6 6 4 7 6 14 6 9 7 6 6 5
14 17 17 18 21 21 23 18 19 13 12 13 13 10 2 8 5 9 9 9 10 19 18 14 12 12 12 8 9 8 7 7 7 10 12 9 7 6 6 6 7 7 6 7 5 5 6 6 7
18 16 17 18 18 18 19 23 20 19 14 17 17 15 9 9 9 7 6 8 8 10 16 16 17 15 12 8 8 9 9 9 9 10 12 11 9 9 7 7 6 8 8 8 8 7 8 9 10
8 13 14 16 19 20 19 21 17 21 13 16 16 13 11 10 10 1 5 5 6 9 10 15 12 11 13 10 11 9 9 10 9 9 11 14 10 9 8 9 7 7 9 8 9 9 9 9 9
14 14 16 15 14 14 11 20 27 19 16 15 19 20 14 9 13 8 7 7 4 6 10 11 6 7 12 10 7 6 6 7 8 9 12 15 14 11 12 8 10 7 9 10 9 8 7 5 8
10 8 7 2 8 12 7 25 23 12 16 17 18 15 18 10 10 11 11 12 8 7 10 12 10 10 9 8 7 6 5 6 5 6 8 13 15 13 10 8 7 9 6 7 8 7 7 7 7
5 10 12 16 11 13 11 26 25 18 17 18 20 16 17 16 11 10 11 11 9 10 11 14 16 16 13 11 7 6 7 6 6 5 5 10 12 13 12 7 7 7 8 5 5 4 6 6 4
7 11 13 19 5 9 13 22 17 15 21 20 19 20 18 17 16 11 10 10 9 10 9 11 12 17 14 7 4 2 4 5 4 5 5 9 10 14 12 8 6 6 5 5 3 4 4 3 4
13 17 17 20 12 13 13 18 22 14 16 19 20 12 19 20 24 19 14 10 8 9 12 12 11 10 8 4 4 3 5 3 3 5 8 8 10 13 12 5 6 5 5 6 6 4 5 2 3
14 15 18 17 13 14 16 22 23 16 16 18 18 21 19 21 19 20 20 17 10 13 15 12 13 10 7 5 3 4 3 4 4 5 7 7 9 11 10 8 6 6 4 5 5 4 2 2 3
14 14 16 20 14 12 15 20 22 26 17 18 21 19 20 22 22 19 14 17 17 12 12 11 11 11 8 8 3 2 1 2 2 3 4 5 9 11 10 8 6 6 5 5 4 5 6 4 0
17 15 20 19 10 10 6 19 17 20 23 19 18 18 19 18 21 19 17 12 9 13 15 14 11 11 9 9 6 8 7 6 4 4 4 6 8 8 7 8 7 6 5 5 5 5 4 4 3
16 14 21 24 10 9 10 11 14 10 16 21 17 22 19 18 21 23 21 12 11 14 14 14 13 12 11 11 13 10 7 5 3 2 8 6 6 8 8 7 7 6 4 5 6 6 5 4 4
16 9 15 16 3 12 15 13 20 16 22 26 20 22 25 19 15 22 19 12 9 10 13 12 13 13 14 13 12 11 11 7 5 4 7 6 4 5 8 8 6 6 6 6 6 5 7 5 4
12 4 5 5 4 12 12 5 9 19 22 26 24 23 25 29 23 19 15 11 9 12 11 13 15 15 14 13 13 13 12 9 9 7 7 9 5 3 6 6 6 4 5 6 6 6 6 6 4
10 5 5 6 9 14 12 11 15 19 19 22 21 26 26 26 31 20 21 14 10 12 11 12 13 11 10 12 13 12 9 6 6 7 8 8 7 6 7 7 6 7 6 7 6 4 4 5 4
14 6 6 3 3 2 7 19 19 20 18 18 27 21 21 22 20 20 12 10 9 10 11 11 11 10 12 12 11 10 9 8 8 9 9 9 7 6 8 8 7 6 7 7 7 4 5 5 4
9 8 8 3 5 6 9 11 9 14 19 27 32 28 25 10 13 3 9 8 6 7 5 4 8 12 13 11 9 9 8 7 10 11 11 10 8 8 9 8 7 7 8 8 7 4 5 6 4
9 5 4 3 5 4 5 4 8 12 16 24 31 31 25 31 7 6 2 7 6 4 3 4 8 9 9 9 8 8 7 7 10 8 9 10 10 11 10 9 8 8 8 7 6 5 6 7 6
6 6 5 3 5 4 8 10 10 8 14 17 25 23 25 24 3 5 5 4 0 3 4 4 7 10 11 10 8 8 8 10 10 10 9 10 12 11 9 9 7 8 7 7 7 6 6 6 6
Wind_Direction
307 283 266 304 49 118 251 255 245 270 276 215 95 77 134 127 147 209 134 120 132 155 158 155 148 145 147 145 143 141 144 145 146 143 140 139 140 142 145 141 142 145 147 143 137 136 131 122 102
317 288 277 266 129 259 266 241 249 249 253 147 73 61 59 80 84 110 91 135 148 153 154 156 150 149 149 150 144 144 148 147 147 148 148 149 151 158 157 157 160 162 161 154 155 155 155 138 129
283 209 48 170 197 227 253 266 297 293 308 133 94 84 94 133 109 138 128 137 139 148 155 159 153 154 150 152 148 149 154 153 151 153 155 157 163 165 165 168 175 179 177 177 172 174 174 168 155
291 358 296 274 259 259 242 278 291 293 308 80 112 97 72 147 142 147 138 138 136 146 157 158 154 154 155 151 154 158 160 159 158 159 164 170 175 172 172 179 186 192 189 189 188 187 191 183 176
253 241 247 261 255 262 264 268 276 288 298 146 113 235 134 149 125 135 143 141 141 153 154 155 158 156 157 154 160 164 168 161 161 164 175 181 182 181 180 187 194 198 196 198 201 197 198 194 192
291 144 313 240 265 265 270 266 333 352 344 306 26 196 165 143 135 149 146 146 150 153 148 155 160 157 159 160 164 166 166 166 166 171 180 185 185 188 189 190 196 203 198 202 207 203 202 202 206
226 338 246 270 270 278 276 332 351 327 333 312 314 13 104 133 140 146 147 142 147 142 143 153 159 162 161 162 164 163 167 171 175 179 185 187 189 194 195 196 200 201 203 203 208 204 206 210 212
250 228 253 259 265 276 293 313 306 316 307 303 321 286 97 168 154 141 140 126 131 135 140 148 157 158 155 167 167 167 170 175 180 185 190 193 195 199 199 200 206 205 207 206 209 206 209 215 218
294 232 241 245 254 264 288 310 309 287 289 317 313 336 59 138 108 97 118 133 131 140 148 148 156 163 159 158 171 171 178 182 184 190 196 195 195 203 202 201 208 210 213 210 212 210 210 216 224
199 227 230 243 263 279 297 298 304 320 312 308 315 319 95 104 116 153 180 170 159 156 166 156 155 163 157 171 165 163 178 184 186 192 189 185 188 195 203 203 211 213 215 213 216 216 213 217 212
235 241 250 248 254 274 278 279 294 304 294 278 289 2 322 151 166 187 212 186 168 172 167 165 160 166 169 179 162 171 186 179 185 194 190 186 195 203 209 194 207 207 214 210 213 216 214 205 201
263 256 247 247 259 269 273 286 284 292 284 291 305 313 347 236 217 195 204 220 166 171 173 156 153 163 172 171 172 170 181 185 191 200 194 187 194 196 201 197 196 191 196 200 192 203 203 206 212
249 264 271 270 271 266 273 269 273 273 278 290 294 299 309 294 228 213 181 199 196 125 143 154 155 167 170 186 176 173 187 189 193 196 200 194 191 201 197 202 189 187 190 193 200 202 203 206 221
301 288 281 271 261 260 261 274 273 264 264 265 276 280 292 313 249 208 285 239 156 147 161 163 160 165 162 175 183 181 188 192 186 198 200 196 194 194 198 204 203 184 193 192 197 204 202 207 213
320 310 304 281 273 274 284 266 257 265 256 265 248 263 267 259 279 237 239 236 207 142 145 182 170 146 168 185 185 184 178 178 189 202 199 193 195 192 198 197 205 194 192 194 198 209 208 195 216
300 283 282 14 267 281 243 268 262 275 253 254 257 268 265 245 248 263 225 235 208 181 143 166 158 163 167 190 206 195 190 198 199 192 203 194 196 193 192 201 198 203 183 188 196 201 212 214 204
251 269 268 272 247 263 259 254 259 256 261 252 247 257 261 270 252 233 237 226 201 181 158 161 167 173 181 201 197 197 202 207 216 218 190 191 189 191 194 188 194 188 207 192 185 185 182 207 211
247 269 281 280 248 247 260 266 273 268 247 248 249 243 243 262 267 262 240 243 203 187 168 152 158 174 174 180 178 217 223 229 207 215 202 177 186 188 186 193 176 176 185 197 197 187 196 158 179
287 291 292 296 320 327 301 290 288 296 301 288 245 243 238 242 253 264 270 250 220 185 164 162 148 159 142 142 153 195 220 218 223 210 206 194 180 186 183 163 172 183 173 188 188 173 181 204 145
302 290 277 281 290 293 298 289 290 294 290 285 282 266 231 229 240 254 259 264 225 187 181 174 171 163 160 148 171 162 182 222 205 202 203 191 165 165 173 172 169 182 165 191 186 157 123 145 143
289 282 282 283 292 276 271 277 287 291 284 278 279 267 259 219 221 233 242 244 244 182 176 169 171 171 169 175 135 183 236 276 214 222 191 178 158 154 157 164 172 176 171 186 179 156 148 162 143
298 294 302 303 304 276 253 275 265 282 288 288 288 274 268 257 227 226 234 232 220 184 170 170 175 174 186 174 174 186 207 214 214 195 162 151 154 152 153 169 169 157 176 166 172 169 150 123 156
301 307 295 295 287 311 285 282 287 273 270 279 282 283 273 271 232 218 230 220 201 184 177 177 178 184 184 186 195 192 197 209 194 180 154 151 158 157 165 162 159 151 180 162 170 157 149 154 147
284 280 301 278 254 267 270 261 273 268 275 286 276 280 281 277 239 223 216 208 177 203 177 178 183 196 197 190 188 185 194 193 186 189 162 166 154 152 152 162 151 168 174 166 173 154 161 162 159
319 61 343 327 316 270 273 295 264 300 282 260 270 276 271 279 280 219 212 206 189 184 189 190 189 198 200 190 191 188 194 187 186 182 165 156 152 148 163 153 149 157 158 150 132 142 155 166 162
296 228 183 265 272 283 299 267 271 259 272 277 274 280 271 286 290 212 208 212 191 199 198 185 187 198 194 192 196 188 174 170 188 171 162 159 167 157 162 139 151 158 143 124 130 135 160 164 171
295 273 256 322 345 310 249 268 268 269 272 331 331 274 268 269 283 209 192 174 177 180 189 188 183 187 186 189 179 167 173 171 178 163 161 159 156 162 147 149 149 157 133 135 143 155 175 171 167
343 308 295 68 261 241 241 287 271 14 3 347 343 331 325 270 270 22 126 134 133 130 123 145 171 169 171 163 158 160 167 172 166 154 161 162 155 148 142 144 146 145 142 146 153 174 181 158 174
341 9 22 177 220 278 310 271 50 21 4 348 329 325 325 304 310 291 125 129 134 127 117 130 160 147 146 142 144 148 172 165 160 138 145 152 150 140 146 146 145 142 137 146 153 169 169 153 166
206 222 177 153 285 294 284 272 65 27 29 332 328 317 325 293 330 352 76 95 229 216 213 177 170 144 146 145 148 157 139 135 121 113 124 129 133 139 140 138 139 133 146 156 151 153 168 159 169